Showing default

STRIX-4, 60352

Orbit data source: Space-Track

STRIX-4, 60352 is a payload satellite owned by Synspective (JP) in LEO that was launched on Fri, 02 Aug 2024 UTC via an ELECTRON launch vehicle from the Rocket Lab Launch Complex (RLLC). Payloads include a variety of satellites, spacecraft, and rockets equipped with specific instruments for various scientific and technological missions. These include communications satellites like Starlink; space stations such as the ISS; scientific satellites like the Hubble; Earth observation satellites from companies like Planet Labs, Umbra, and HawkEye 360; GPS; miniature CubeSats for education and research; and military/defense satellites.

Loading next visibility...
STRIX-4 details
Identifier
60352, 2024-137A
Orbit
LEO
Last TLE update4 hours ago
Origin
Flag of JPSynspective (JP / JPN)
ManufacturerSynspective
MissionOperational spacecraft
Bus & MotorSTRIX, Unknown motor
Mass150 kg wet, 150 kg dry
Launch date (UTC)
2024-08-02 (5 months ago)
Launch vehicle
ELECTRON
Launch site
Rocket Lab Launch Complex (RLLC)
Object type
Payload
Rocket body
Debris
Shape & HBRUnknown
Radar Cross SectionMedium (>0.1 m² and <1 m²)

Expand to show TLE details & history

TLE from 4 hours ago
0 STRIX-4
1 60352U 24137A   25015.16492943  .00015843  00000-0  86102-3 0  9995
2 60352  43.0216 310.0597 0010273 200.7784 159.2646 15.14237334 25025
Epoch: 2025-01-15T03:57Z
Definitive object data (Epoch: 2025-01-15T03:57:29.902Z)
Latitude-0.00006°
Longitude135.82385°
Altitude529.705 km
Speed7.596 km/s
True Right ascension20h 40m 14s
True Declination0° 00' 00"
Sunlit
Object was in daylight at TLE epoch
Visualization TLE readout
Latitude-42.62104°
Longitude33.54248°
Altitude532.841 km
Speed7.599 km/s
Apparent Right ascension17h 17m 42s
Apparent Declination-55° 30' 34"
Sunlit
Object is in daylight
Visualization observer readout
Local Sidereal Time08:56:09
Azimuth132.413° SE
Elevation-51.296°
Doppler factor1
Orbital elements
Apogee altitude532.317 km
Perigee altitude518.133 km
Semi-major axis6,903.362 km
Eccentricity0.0010273
Inclination43.0216°
RAAN310.0597°
Arg. of periapsis200.7784°
True anomaly159.30623°
Mean anomaly159.2646°
Eccentric anomaly159.28542°
Mean motion3.78401 °/min
BSTAR0.00086102
Orbital period95.14 mins
Loading maneuver chart data...
Loading historical data...
Loading historical data...
Loading historical data...
Loading historical data...
Loading historical data...
Loading historical data...
Loading historical data...
Other satellites on launch #137 in the year 2024 (2024-08-02 UTC)

STRIX-4 Visibility forecast

Observer location: undefined°, undefined

Span
Click to sort rows by Start time (UTC) header in descending order
Start Az.
Max El. time (UTC)
Max El. Az.
Max El.
End time (UTC)
End Az.
6 mins2025-01-15 23:11:28.805Z227.116° WSW2025-01-15 23:13:28.805Z184.409° SSW38.823°2025-01-15 23:17:28.805Z77.136° E
6 mins2025-01-16 00:51:28.805Z278.66° WNW2025-01-16 00:53:28.805Z326.839° NNW39.727°2025-01-16 00:57:28.805Z71.643° E
6 mins2025-01-16 02:31:28.805Z293.769° NW2025-01-16 02:33:28.805Z332.341° NNW39.818°2025-01-16 02:37:28.805Z90.97° ESE
6 mins2025-01-16 04:11:28.805Z272.914° WNW2025-01-16 04:13:28.805Z224.222° SW36.123°2025-01-16 04:17:28.805Z133.265° SE
|